User: anonymous   Login
Location: Unspecified
(0.0000°N, 0.0000°E)
Time: 21:25:07
(UTC+00:00)
Language:

COSMOS-2414 - Orbit

View from above orbital plane
View from above orbital plane
View from above satellite
View from above satellite

Ground track
Ground track

The orbit data is extracted from the following two-line orbital elements,

1 28521U 05002A   18052.55998074  .00000008  00000-0 -60309-5 0  9990
2 28521  82.9515 180.3058 0040326 350.7762   9.2654 13.87595062662860
Epoch (UTC): 21 February 2018 13:26:22
Eccentricity: 0.0040326
inclination: 82.9515°
perigee height: 907 km
apogee height: 966 km
right ascension of ascending node: 180.3058°
argument of perigee: 350.7762°
revolutions per day: 13.87595062
mean anomaly at epoch: 9.2654°
orbit number at epoch: 66286

The dashed part of the orbit path shows where the satellite is in the earth's shadow,  

DLR